Mar del Plata, Argentina

3:49 AM America en Noviembre 15, 2018 (GMT +0000)
Mar Del Plata International

Tiempo Historia de SAZM - Septiembre, 2018

Change the Weather History Date:

Viernes, Septiembre 14, 2018

  Actual Average Record
Temperature  
Temperatura media 54 ° F -  
Temperatura máxima 64 ° F 63 ° F 75 ° F (2015)
Temperatura mínima 45 ° F 44 ° F 19 ° F (2001)
Degree Days  
Grados día de calefacción 10    
Growing Degree Days 4 (Base 50)    
Moisture  
Punto de rocío 48 ° F    
Average Humidity 87    
Maximum Humidity 100    
Minimum Humidity 57    
Precipitación  
Precipitación 0.00 pul 0.09 pul - ()
Presión al nivel del mar  
Presión al nivel del mar 30.08 pul    
Viento  
Velocidad del viento 6 mph ()    
Velocidad máxima del viento 9 mph    
Max Gust Speed -    
Visibilidad 4.1 Millas    
Eventos Niebla    
Averages and records for this station are not official NWS values.
T = Trace of Precipitation, MM = Missing Value Source: Averaged Metar Reports

Daily Weather History Graph

Daily Weather History Graph

Search for Another Location

Airport or City:

Astronomía

Sep. 14, 2018 Salida Puesta
Hora real 6:52 AM -03 6:40 PM -03
Crepúsculo civil 6:26 AM -03 7:06 PM -03
Crepúsculo náutico 5:55 AM -03 7:36 PM -03
Crepúsculo astronómico 5:24 AM -03 8:07 PM -03
Luna 10:03 AM -03 (9/14) Sin puesta de luna
Horas de luz 12h 40m
Horas de luz
11h 47m
Creciente, 27% of the Moon is Illuminated
Sep 14
Creciente
Sep 16
Cuarto creciente
Sep 24
Luna llena
Oct 2
Cuarto menguante
Oct 9
Nueva

Hourly Weather History & Observations

Hora (-03) Temp. Vientos helados Punto de rocío Humedad Presión Visibilidad Wind Dir Velocidad del viento Velocidad de ráfagas Precip Eventos Condiciones
12:00 AM 46 ° F - 45 ° F 95% 30.16 pul 6 mi NE 4.6 mph - -   Nublado
12:00 AM 46.4 ° F 44.3 ° F 44.6 ° F 93% 30.12 pul 6.2 mi NE 4.6 mph - N/A   Nublado
1:00 AM 46.4 ° F - 44.6 ° F 93% 30.12 pul 6.2 mi NE 2.3 mph - N/A   Nublado
2:00 AM 46.4 ° F 45.2 ° F 44.6 ° F 93% 30.12 pul 6.2 mi Este 3.5 mph - N/A   Nublado
3:00 AM 46 ° F - 45 ° F 96% 30.13 pul 6 mi NNE 6.9 mph - -   Nublado
3:00 AM 46.4 ° F 42.9 ° F 44.6 ° F 93% 30.12 pul 6.2 mi NNE 6.9 mph - N/A   Nublado
4:00 AM 46.4 ° F 42.9 ° F 44.6 ° F 93% 30.12 pul 6.2 mi NNE 6.9 mph - N/A   Nublado
5:00 AM 46.4 ° F 44.3 ° F 44.6 ° F 93% 30.09 pul 6.2 mi Norte 4.6 mph - N/A   Nublado
6:00 AM 46 ° F - 44 ° F 90% 30.13 pul 6 mi Norte 6.9 mph - -   Muy nublado
6:00 AM 46.4 ° F 42.9 ° F 44.6 ° F 93% 30.12 pul 6.2 mi Norte 6.9 mph - N/A   Muy nublado
7:00 AM 46.4 ° F 42.9 ° F 44.6 ° F 93% 30.12 pul 6.2 mi NO 6.9 mph - N/A   Nublado
8:00 AM 46.4 ° F 42.9 ° F 42.8 ° F 87% 30.12 pul 6.2 mi Norte 6.9 mph - N/A   Nublado
9:00 AM 46 ° F - 44 ° F 91% 30.14 pul 6 mi NO 6.9 mph - -   Muy nublado
9:00 AM 46.4 ° F 42.9 ° F 44.6 ° F 93% 30.12 pul 6.2 mi NO 6.9 mph - N/A   Muy nublado
10:00 AM 50.0 ° F - 44.6 ° F 82% 30.12 pul 6.2 mi NO 9.2 mph - N/A   Nubes dispersas
11:00 AM 53.6 ° F - 46.4 ° F 77% 30.12 pul - Norte 5.8 mph - N/A   Despejado
12:00 PM 57 ° F - 46 ° F 57% 30.12 pul 6 mi Norte 6.9 mph - -  
12:00 PM 57.2 ° F - 46.4 ° F 67% 30.09 pul - Norte 6.9 mph - N/A   Despejado
1:00 PM 60.8 ° F - 46.4 ° F 59% 30.09 pul - NNO 6.9 mph - N/A   Despejado
2:00 PM 62.6 ° F - 48.2 ° F 59% 30.06 pul - NNO 5.8 mph - N/A   Despejado
3:00 PM 63 ° F - 52 ° F 58% 30.06 pul 6 mi ENE 9.2 mph - -  
3:00 PM 62.6 ° F - 51.8 ° F 68% 30.04 pul - ENE 9.2 mph - N/A   Despejado
4:00 PM 60.8 ° F - 53.6 ° F 77% 30.04 pul - ENE 9.2 mph - N/A   Despejado
5:00 PM 59.0 ° F - 53.6 ° F 82% 30.04 pul - ENE 9.2 mph - N/A   Despejado
6:00 PM 58 ° F - 53 ° F 76% 30.05 pul 6 mi ENE 6.9 mph - -  
6:00 PM 59.0 ° F - 51.8 ° F 77% 30.04 pul - ENE 6.9 mph - N/A   Despejado
7:00 PM 53.6 ° F - 51.8 ° F 94% 30.04 pul - ENE 6.9 mph - N/A   Despejado
8:00 PM 53.6 ° F - 51.8 ° F 94% 30.04 pul 2.5 mi NE 6.9 mph - N/A   Muy nublado
8:08 PM 53.6 ° F - 51.8 ° F 94% 30.04 pul 0.4 mi NE 6.9 mph - N/A Niebla Niebla
8:14 PM 53.6 ° F - 51.8 ° F 94% 30.04 pul 0.2 mi ENE 6.9 mph - N/A Niebla Niebla
8:33 PM 51.8 ° F - 51.8 ° F 100% 30.04 pul 0.1 mi NE 9.2 mph - N/A Niebla Niebla
9:00 PM 52 ° F - 52 ° F 100% 30.06 pul 0 mi NE 6.9 mph - - Niebla Poca niebla
9:00 PM 51.8 ° F - 51.8 ° F 100% 30.04 pul 0.1 mi ENE 6.9 mph - N/A Niebla Niebla
9:41 PM 51.8 ° F - 51.8 ° F 100% 30.04 pul 0.3 mi ENE 6.9 mph - N/A Niebla Niebla
10:00 PM 51.8 ° F - 51.8 ° F 100% 30.04 pul 2.5 mi NNE 9.2 mph - N/A   Nublado
10:22 PM 51.8 ° F - 51.8 ° F 100% 30.04 pul 3.7 mi NNE 6.9 mph - N/A   Nublado
11:00 PM 51.8 ° F - 51.8 ° F 100% 30.04 pul 3.1 mi NNE 5.8 mph - N/A   Nublado
11:07 PM 51.8 ° F - 51.8 ° F 100% 30.04 pul 0.9 mi NNE 5.8 mph - N/A   Nublado
11:15 PM 51.8 ° F - 51.8 ° F 100% 30.04 pul 0.4 mi NNE 5.8 mph - N/A Niebla Niebla